Le nostre stazioni meteo in Italia

Pubblicità
Il mio iltempo24.it
Termoli, Italia (16232): Temperatura & dewpoint: 10.02.2019 07:00:00 - 16.02.2019 07:00:00 (CET)Termoli, Italia (16232): velocità del vento: 10.02.2019 07:00:00 - 16.02.2019 07:00:00 (CET)Termoli, Italia (16232): direzione del vento: 10.02.2019 07:00:00 - 16.02.2019 07:00:00 (CET)Termoli, Italia (16232): reduced air pressure: 10.02.2019 07:00:00 - 16.02.2019 07:00:00 (CET)Termoli, Italia (16232): visibility: 10.02.2019 07:00:00 - 16.02.2019 07:00:00 (CET)Termoli, Italia (16232): ore di luce: 10.02.2019 07:00:00 - 16.02.2019 07:00:00 (CET)
Data & Tempo tt [°C] td [°C] ff [km/h] ff [kn] dd ppp [hPa] vv [km] sd [min]
16.02.2019 07:00:00 8,0 6,1 26 14 NO 1029,2 10 0
16.02.2019 06:00:00 - - - - - - - -
16.02.2019 05:00:00 - - - - - - - -
16.02.2019 04:00:00 - - - - - - - -
16.02.2019 03:00:00 - - - - - - - -
16.02.2019 02:00:00 - - - - - - - -
16.02.2019 01:00:00 - - - - - - - -
16.02.2019 00:00:00 - - - - - - - -
15.02.2019 23:00:00 - - - - - - - -
15.02.2019 22:00:00 - - - - - - - -
15.02.2019 21:00:00 - - - - - - - -
15.02.2019 20:00:00 - - - - - - - -
15.02.2019 19:00:00 11,6 5,9 39 21 N 1028,7 10 -
15.02.2019 18:00:00 - - - - - - - -
15.02.2019 17:00:00 - - - - - - - -
15.02.2019 16:00:00 10,8 9,4 41 22 NNO 1027,4 4,0 -
15.02.2019 15:00:00 - - - - - - - -
15.02.2019 14:00:00 - - - - - - - -
15.02.2019 13:00:00 11,2 10,1 41 22 NNO 1028,2 4,0 60
15.02.2019 12:00:00 - - - - - - - -
15.02.2019 11:00:00 - - - - - - - -
15.02.2019 10:00:00 10,0 6,0 42 23 NO 1029,6 10 60
15.02.2019 09:00:00 - - - - - - - -
15.02.2019 08:00:00 - - - - - - - -
15.02.2019 07:00:00 8,4 2,6 28 15 ONO 1030,3 10 0
15.02.2019 06:00:00 - - - - - - - -
15.02.2019 05:00:00 - - - - - - - -
15.02.2019 04:00:00 - - - - - - - -
15.02.2019 03:00:00 - - - - - - - -
15.02.2019 02:00:00 - - - - - - - -
15.02.2019 01:00:00 - - - - - - - -
15.02.2019 00:00:00 - - - - - - - -
14.02.2019 23:00:00 - - - - - - - -
14.02.2019 22:00:00 - - - - - - - -
14.02.2019 21:00:00 - - - - - - - -
14.02.2019 20:00:00 - - - - - - - -
14.02.2019 19:00:00 9,4 6,3 21 11 ONO 1030,9 20 -
14.02.2019 18:00:00 - - - - - - - -
14.02.2019 17:00:00 - - - - - - - -
14.02.2019 16:00:00 11,2 6,5 28 15 ONO 1031,1 10 60
14.02.2019 15:00:00 - - - - - - - -
14.02.2019 14:00:00 - - - - - - - -
14.02.2019 13:00:00 11,0 5,5 35 19 NO 1032,4 20 60
14.02.2019 12:00:00 - - - - - - - -
14.02.2019 11:00:00 - - - - - - - -
14.02.2019 10:00:00 9,2 5,2 44 24 NO 1033,5 20 60
14.02.2019 09:00:00 - - - - - - - -
14.02.2019 08:00:00 - - - - - - - -
14.02.2019 07:00:00 7,8 4,4 42 23 ONO 1033,1 15 0
14.02.2019 06:00:00 - - - - - - - -
14.02.2019 05:00:00 - - - - - - - -
14.02.2019 04:00:00 - - - - - - - -
14.02.2019 03:00:00 - - - - - - - -
14.02.2019 02:00:00 - - - - - - - -
14.02.2019 01:00:00 - - - - - - - -
14.02.2019 00:00:00 - - - - - - - -
13.02.2019 23:00:00 - - - - - - - -
13.02.2019 22:00:00 - - - - - - - -
13.02.2019 21:00:00 - - - - - - - -
13.02.2019 20:00:00 - - - - - - - -
13.02.2019 19:00:00 9,0 -0,3 42 23 N 1033,5 20 -
13.02.2019 18:00:00 - - - - - - - -
13.02.2019 17:00:00 - - - - - - - -
13.02.2019 16:00:00 9,0 0,4 44 24 NNO 1032,7 25 42
13.02.2019 15:00:00 - - - - - - - -
13.02.2019 14:00:00 - - - - - - - -
13.02.2019 13:00:00 8,0 -1,8 54 29 N 1033,4 25 54
13.02.2019 12:00:00 - - - - - - - -
13.02.2019 11:00:00 - - - - - - - -
13.02.2019 10:00:00 8,0 -2,3 52 28 N 1033,6 25 60
13.02.2019 09:00:00 - - - - - - - -
13.02.2019 08:00:00 - - - - - - - -
13.02.2019 07:00:00 8,8 -2,8 37 20 N 1032,9 20 0
13.02.2019 06:00:00 - - - - - - - -
13.02.2019 05:00:00 - - - - - - - -
13.02.2019 04:00:00 - - - - - - - -
13.02.2019 03:00:00 - - - - - - - -
13.02.2019 02:00:00 - - - - - - - -
13.02.2019 01:00:00 - - - - - - - -
13.02.2019 00:00:00 - - - - - - - -
12.02.2019 23:00:00 - - - - - - - -
12.02.2019 22:00:00 - - - - - - - -
12.02.2019 21:00:00 - - - - - - - -
12.02.2019 20:00:00 - - - - - - - -
12.02.2019 19:00:00 9,8 -2,2 29 16 NNE 1026,2 20 -
12.02.2019 18:00:00 - - - - - - - -
12.02.2019 17:00:00 - - - - - - - -
12.02.2019 16:00:00 10,0 -2,6 37 20 N 1021,6 25 60
12.02.2019 15:00:00 - - - - - - - -
12.02.2019 14:00:00 - - - - - - - -
12.02.2019 13:00:00 10,0 1,6 41 22 NO 1022,4 25 48
12.02.2019 12:00:00 - - - - - - - -
12.02.2019 11:00:00 - - - - - - - -
12.02.2019 10:00:00 9,0 6,3 42 23 NO 1021,4 20 6
12.02.2019 09:00:00 - - - - - - - -
12.02.2019 08:00:00 - - - - - - - -
12.02.2019 07:00:00 10,4 3,4 46 25 N 1019,8 20 0
12.02.2019 06:00:00 - - - - - - - -
12.02.2019 05:00:00 - - - - - - - -
12.02.2019 04:00:00 - - - - - - - -
12.02.2019 03:00:00 - - - - - - - -
12.02.2019 02:00:00 - - - - - - - -
12.02.2019 01:00:00 - - - - - - - -
12.02.2019 00:00:00 - - - - - - - -
11.02.2019 23:00:00 - - - - - - - -
11.02.2019 22:00:00 - - - - - - - -
11.02.2019 21:00:00 - - - - - - - -
11.02.2019 20:00:00 - - - - - - - -
11.02.2019 19:00:00 8,2 5,3 52 28 N 1011,3 12 0
11.02.2019 18:00:00 - - - - - - - -
11.02.2019 17:00:00 - - - - - - - -
11.02.2019 16:00:00 10,4 7,6 50 27 NO 1007,8 10 0
11.02.2019 15:00:00 - - - - - - - -
11.02.2019 14:00:00 - - - - - - - -
11.02.2019 13:00:00 10,2 9,0 11 6 O 1006,5 12 0
11.02.2019 12:00:00 - - - - - - - -
11.02.2019 11:00:00 - - - - - - - -
11.02.2019 10:00:00 15,4 7,4 29 16 O 1005,6 20 0
11.02.2019 09:00:00 - - - - - - - -
11.02.2019 08:00:00 - - - - - - - -
11.02.2019 07:00:00 14,8 4,5 24 13 SSO 1005,3 25 0
11.02.2019 06:00:00 - - - - - - - -
11.02.2019 05:00:00 - - - - - - - -
11.02.2019 04:00:00 - - - - - - - -
11.02.2019 03:00:00 - - - - - - - -
11.02.2019 02:00:00 - - - - - - - -
11.02.2019 01:00:00 - - - - - - - -
11.02.2019 00:00:00 - - - - - - - -
10.02.2019 23:00:00 - - - - - - - -
10.02.2019 22:00:00 - - - - - - - -
10.02.2019 21:00:00 - - - - - - - -
10.02.2019 20:00:00 - - - - - - - -
10.02.2019 19:00:00 14,4 4,7 24 13 SSO 1014,0 20 -
10.02.2019 18:00:00 - - - - - - - -
10.02.2019 17:00:00 - - - - - - - -
10.02.2019 16:00:00 15,2 4,3 24 13 SO 1015,4 20 42
10.02.2019 15:00:00 - - - - - - - -
10.02.2019 14:00:00 - - - - - - - -
10.02.2019 13:00:00 16,0 3,4 16 9 O 1017,7 20 60
10.02.2019 12:00:00 - - - - - - - -
10.02.2019 11:00:00 - - - - - - - -
10.02.2019 10:00:00 10,8 5,4 4 2 ONO 1020,5 20 48
10.02.2019 09:00:00 - - - - - - - -
10.02.2019 08:00:00 - - - - - - - -
10.02.2019 07:00:00 7,6 5,2 9 5 S 1020,8 12 0

tt = Temperatura
td = dewpoint
ff = velocità del vento
dd = direzione del vento
ppp = reduced air pressure
vv = visibility
sd = ore di luce

Stazioni seguenti

WeatherPro
AMSI
MeteoEarth